Weather History for KACQ - July, 2013

Change the Weather History Date:

Friday, July 19, 2013

  Actual Average Record
Temperature  
Mean Temperature 74 °F -  
Max Temperature 82 °F 83 °F 101 °F (1926)
Min Temperature 64 °F 61 °F 46 °F (1947)
Cooling Degree Days 9    
Growing Degree Days 24 (Base 50)    
Moisture  
Dew Point 66 °F    
Average Humidity 71    
Maximum Humidity 88    
Minimum Humidity 48    
Precipitation  
Precipitation 0.26 in - - ()
Sea Level Pressure  
Sea Level Pressure 29.88 in    
Wind  
Wind Speed 11 mph (West)    
Max Wind Speed 16 mph    
Max Gust Speed 24 mph    
Visibility 10 miles    
Events Rain , Thunderstorm    
Averages and records for this station are not official NWS values.
T = Trace of Precipitation, MM = Missing Value Source: NWS Daily Summary

Daily Weather History Graph

Daily Weather History Graph

Search for Another Location

Airport or City:

Trip Planner

Search our weather history database for the weather conditions in past years. The results will help you decide how hot, cold, wet, or windy it might be!

Date:

Astronomy

Jul. 19, 2013 Rise Set
Actual Time 5:49 AM CDT 8:51 PM CDT
Civil Twilight 5:14 AM CDT 9:25 PM CDT
Nautical Twilight 4:30 AM CDT 10:10 PM CDT
Astronomical Twilight 3:37 AM CDT 11:02 PM CDT
Moon 5:54 PM CDT (7/19) 2:31 AM CDT (7/19)
Length of Visible Light 16h 11m
Length of Day
15h 02m
Waxing Gibbous, 87% of the Moon is Illuminated
Jul 19
Waxing Gibbous
Jul 22
Full
Jul 29
Last Quarter
Aug 6
New
Aug 14
First Quarter

Hourly Weather History & Observations

Time (CDT) Temp. Heat Index Dew Point Humidity Pressure Visibility Wind Dir Wind Speed Gust Speed Precip Events Conditions
12:15 AM 80.6 °F 83.9 °F 69.8 °F 70% 29.86 in 10.0 mi SSW 12.7 mph - N/A   Clear
12:35 AM 80.6 °F 83.9 °F 69.8 °F 70% 29.85 in 10.0 mi SSW 13.8 mph 18.4 mph N/A   Clear
12:55 AM 80.6 °F 83.9 °F 69.8 °F 70% 29.85 in 10.0 mi SSW 12.7 mph 19.6 mph N/A   Clear
1:15 AM 80.6 °F 83.9 °F 69.8 °F 70% 29.84 in 10.0 mi SSW 15.0 mph 19.6 mph N/A   Clear
1:35 AM 80.6 °F 83.9 °F 69.8 °F 70% 29.84 in 10.0 mi SSW 13.8 mph 20.7 mph N/A   Clear
1:55 AM 80.6 °F 83.9 °F 69.8 °F 70% 29.83 in 10.0 mi SSW 15.0 mph - N/A   Scattered Clouds
2:15 AM 80.6 °F 83.9 °F 69.8 °F 70% 29.82 in 10.0 mi SSW 15.0 mph 20.7 mph N/A   Clear
2:35 AM 80.6 °F 83.2 °F 68.0 °F 65% 29.81 in 10.0 mi SSW 15.0 mph 20.7 mph N/A   Clear
2:55 AM 80.6 °F 83.2 °F 68.0 °F 65% 29.82 in 10.0 mi WSW 11.5 mph 19.6 mph N/A Thunderstorm Thunderstorm
3:15 AM 78.8 °F - 68.0 °F 69% 29.85 in 10.0 mi West 11.5 mph - N/A Rain , Thunderstorm Rain
3:35 AM 73.4 °F - 68.0 °F 83% 29.85 in 2.5 mi WSW 13.8 mph 24.2 mph 0.22 in Rain , Thunderstorm Heavy Thunderstorms and Rain
3:55 AM 73.4 °F - 69.8 °F 88% 29.84 in 10.0 mi SSW 8.1 mph 11.5 mph 0.26 in Rain , Thunderstorm Light Thunderstorms and Rain
4:15 AM 73.4 °F - 69.8 °F 88% 29.84 in 10.0 mi SSW 9.2 mph - N/A Thunderstorm Overcast
4:35 AM 73.4 °F - 69.8 °F 88% 29.84 in 10.0 mi SW 9.2 mph - N/A Thunderstorm Unknown
4:55 AM 73.4 °F - 69.8 °F 88% 29.84 in 10.0 mi SSW 11.5 mph - N/A   Mostly Cloudy
5:15 AM 73.4 °F - 69.8 °F 88% 29.84 in 10.0 mi South 8.1 mph - N/A   Scattered Clouds
5:35 AM 73.4 °F - 68.0 °F 83% 29.84 in 10.0 mi SSW 9.2 mph - N/A   Scattered Clouds
5:55 AM 73.4 °F - 69.8 °F 88% 29.84 in 10.0 mi SSW 5.8 mph - N/A   Scattered Clouds
6:15 AM 73.4 °F - 69.8 °F 88% 29.84 in 10.0 mi South 3.5 mph - N/A   Clear
6:35 AM 73.4 °F - 69.8 °F 88% 29.84 in 10.0 mi Calm Calm - N/A   Clear
6:55 AM 73.4 °F - 69.8 °F 88% 29.85 in 10.0 mi SW 5.8 mph - N/A   Clear
7:15 AM 73.4 °F - 69.8 °F 88% 29.84 in 10.0 mi SW 5.8 mph - N/A   Clear
7:34 AM 73.4 °F - 69.8 °F 88% 29.85 in 10.0 mi SW 5.8 mph - N/A   Clear
7:55 AM 77.0 °F - 71.6 °F 83% 29.85 in 10.0 mi WSW 6.9 mph - N/A   Clear
8:15 AM 78.8 °F - 73.4 °F 83% 29.86 in 10.0 mi West 8.1 mph - N/A   Clear
8:35 AM 78.8 °F - 71.6 °F 78% 29.86 in 10.0 mi West 10.4 mph - N/A   Clear
8:55 AM 78.8 °F - 69.8 °F 74% 29.86 in 10.0 mi West 9.2 mph - N/A   Clear
9:15 AM 78.8 °F - 69.8 °F 74% 29.87 in 10.0 mi West 12.7 mph - N/A   Clear
9:35 AM 78.8 °F - 69.8 °F 74% 29.88 in 10.0 mi NW 11.5 mph - N/A   Clear
9:55 AM 80.6 °F 83.9 °F 69.8 °F 70% 29.88 in 10.0 mi WNW 11.5 mph - N/A   Clear
10:15 AM 80.6 °F 83.9 °F 69.8 °F 70% 29.88 in 10.0 mi WNW 11.5 mph 17.3 mph N/A   Clear
10:35 AM 78.8 °F - 68.0 °F 69% 29.89 in 10.0 mi WNW 13.8 mph 18.4 mph N/A   Clear
10:55 AM 78.8 °F - 68.0 °F 69% 29.90 in 10.0 mi WNW 12.7 mph - N/A   Clear
11:15 AM 78.8 °F - 66.2 °F 65% 29.90 in 10.0 mi NW 13.8 mph - N/A   Clear
11:35 AM 80.6 °F 83.2 °F 68.0 °F 65% 29.90 in 10.0 mi West 12.7 mph 19.6 mph N/A   Clear
11:55 AM 80.6 °F 83.2 °F 68.0 °F 65% 29.90 in 10.0 mi WNW 10.4 mph 17.3 mph N/A   Clear
12:15 PM 80.6 °F 83.2 °F 68.0 °F 65% 29.90 in 10.0 mi WNW 10.4 mph - N/A   Clear
12:36 PM 78.8 °F - 68.0 °F 69% 29.91 in 10.0 mi West 13.8 mph 17.3 mph N/A   Mostly Cloudy
12:55 PM 80.6 °F 83.2 °F 68.0 °F 65% 29.91 in 10.0 mi WNW 16.1 mph 20.7 mph N/A   Scattered Clouds
1:15 PM 80.6 °F 83.2 °F 68.0 °F 65% 29.91 in 10.0 mi WNW 13.8 mph 19.6 mph N/A   Clear
1:35 PM 80.6 °F 82.7 °F 66.2 °F 61% 29.91 in 10.0 mi WNW 13.8 mph 18.4 mph N/A   Clear
1:55 PM 80.6 °F 82.7 °F 66.2 °F 61% 29.91 in 10.0 mi NW 12.7 mph 19.6 mph N/A   Scattered Clouds
2:15 PM 80.6 °F 83.2 °F 68.0 °F 65% 29.91 in 10.0 mi WNW 12.7 mph 20.7 mph N/A   Scattered Clouds
2:35 PM 80.6 °F 82.3 °F 64.4 °F 58% 29.91 in 10.0 mi WNW 10.4 mph 19.6 mph N/A   Scattered Clouds
2:55 PM 80.6 °F 81.8 °F 62.6 °F 54% 29.91 in 10.0 mi NW 13.8 mph 18.4 mph N/A   Clear
3:15 PM 80.6 °F 81.8 °F 62.6 °F 54% 29.91 in 10.0 mi NW 12.7 mph 19.6 mph N/A   Clear
3:35 PM 80.6 °F 81.8 °F 62.6 °F 54% 29.91 in 10.0 mi NW 11.5 mph 18.4 mph N/A   Clear
3:55 PM 80.6 °F 81.5 °F 60.8 °F 51% 29.91 in 10.0 mi NW 12.7 mph 18.4 mph N/A   Clear
4:15 PM 80.6 °F 81.5 °F 60.8 °F 51% 29.91 in 10.0 mi NW 12.7 mph - N/A   Clear
4:35 PM 80.6 °F 81.5 °F 60.8 °F 51% 29.91 in 10.0 mi WNW 11.5 mph - N/A   Clear
4:55 PM 82.4 °F 83.4 °F 62.6 °F 51% 29.91 in 10.0 mi WNW 11.5 mph 17.3 mph N/A   Clear
5:15 PM 80.6 °F 81.1 °F 59.0 °F 48% 29.91 in 10.0 mi WNW 9.2 mph - N/A   Clear
5:35 PM 80.6 °F 81.5 °F 60.8 °F 51% 29.91 in 10.0 mi NW 12.7 mph 18.4 mph N/A   Clear
5:55 PM 80.6 °F 81.1 °F 59.0 °F 48% 29.91 in 10.0 mi WNW 10.4 mph - N/A   Clear
6:15 PM 80.6 °F 81.8 °F 62.6 °F 54% 29.90 in 10.0 mi NW 10.4 mph 16.1 mph N/A   Clear
6:35 PM 80.6 °F 81.8 °F 62.6 °F 54% 29.90 in 10.0 mi WNW 6.9 mph - N/A   Clear
6:55 PM 78.8 °F - 62.6 °F 57% 29.91 in 10.0 mi WNW 11.5 mph - N/A   Clear
7:15 PM 78.8 °F - 60.8 °F 54% 29.91 in 10.0 mi WNW 11.5 mph - N/A   Clear
7:35 PM 78.8 °F - 62.6 °F 57% 29.91 in 10.0 mi NW 8.1 mph - N/A   Clear
7:55 PM 78.8 °F - 64.4 °F 61% 29.90 in 10.0 mi NW 4.6 mph - N/A   Clear
8:15 PM 77.0 °F - 62.6 °F 61% 29.90 in 10.0 mi NW 4.6 mph - N/A   Clear
8:35 PM 73.4 °F - 62.6 °F 69% 29.91 in 10.0 mi WNW 3.5 mph - N/A   Clear
8:56 PM 73.4 °F - 66.2 °F 78% 29.91 in 10.0 mi NW 3.5 mph - N/A   Clear
9:15 PM 73.4 °F - 64.4 °F 73% 29.91 in 10.0 mi WNW 4.6 mph - N/A   Clear
9:36 PM 71.6 °F - 64.4 °F 78% 29.92 in 10.0 mi WNW 4.6 mph - N/A   Clear
9:55 PM 69.8 °F - 62.6 °F 78% 29.92 in 10.0 mi Calm Calm - N/A   Clear
10:15 PM 66.2 °F - 62.6 °F 88% 29.93 in 10.0 mi West 4.6 mph - N/A   Clear
10:35 PM 66.2 °F - 62.6 °F 88% 29.93 in 10.0 mi WSW 3.5 mph - N/A   Clear
10:55 PM 66.2 °F - 62.6 °F 88% 29.94 in 10.0 mi Calm Calm - N/A   Clear
11:15 PM 66.2 °F - 62.6 °F 88% 29.94 in 10.0 mi NW 3.5 mph - N/A   Clear
11:35 PM 66.2 °F - 62.6 °F 88% 29.94 in 10.0 mi WNW 4.6 mph - N/A   Clear
11:55 PM 64.4 °F - 60.8 °F 88% 29.95 in 10.0 mi Calm Calm - N/A   Clear